Location: Unspecified
(43.3830°N, 0.0000°E)
Time: 08:39:40
(UTC+00:00)

Vanguard 2 - Pass Details

Date: 23 June 2019
Orbit: 553 x 2938 km, 32.9° (Epoch: 23 July)

Event Time Altitude Azimuth Distance (km) Brightness Sun altitude
Rises 08:09:39 0° 230° (SW) 3,034 10.3 38.7°
Reaches altitude 10° 08:11:58 10° 217° (SW) 2,301 9.8 39.1°
Maximum altitude 08:16:30 28° 159° (SSE) 1,755 10.0 39.9°
Drops below altitude 10° 08:23:04 10° 105° (ESE) 3,412 12.0 41.1°
Sets 08:27:20 0° 95° (E) 4,839 12.5 41.9°
